[Iaude] MPEC T140: 2023 TV4 [a=1.48,e=0.32,i=4.9,H=25.1]
    mpec at marsden.cfa.harvard.edu 
    mpec at marsden.cfa.harvard.edu
       
    Tue Oct 10 16:43:48 EDT 2023
    
    
  
M.P.E.C. 2023-T140                             Issued 2023 October 10, 20:42 UT
     The Minor Planet Electronic Circulars contain information on unusual
         minor planets, routine data on comets and natural satellites,
         and occasional editorial announcements.  They are published
    on behalf of Division F of the International Astronomical Union by the
          Minor Planet Center, Smithsonian Astrophysical Observatory,
                          Cambridge, MA 02138, U.S.A.
			  
             Prepared using the Tamkin Foundation Computer Network
                              MPC at CFA.HARVARD.EDU
            URL https://www.minorplanetcenter.net/    ISSN 1523-6714
                                    2023 TV4                                    
Observations:
     K23T04V*1C2023 10 09.14969321 02 28.133+27 28 02.86         20.45GVET140G96
     K23T04V 1C2023 10 09.15550821 02 28.864+27 28 18.70         20.30GVET140G96
     K23T04V 1C2023 10 09.16133421 02 29.627+27 28 34.79         20.34GVET140G96
     K23T04V KB2023 10 09.21648 21 02 34.85 +27 30 25.9          20.4 rZET140H36
     K23T04V KB2023 10 09.23251 21 02 37.41 +27 31 05.7          20.7 rZET140H36
     K23T04V KC2023 10 09.24555821 02 41.120+27 32 13.00               VET140I52
     K23T04V KC2023 10 09.24820821 02 41.560+27 32 19.40         20.63GVET140I52
     K23T04V KB2023 10 09.24852 21 02 40.11 +27 31 44.5          20.3 rZET140H36
     K23T04V KC2023 10 09.25085521 02 41.870+27 32 25.50               VET140I52
     K23T04V HC2023 10 09.80734 21 04 54.92 +27 58 52.1                VET140204
     K23T04V HC2023 10 09.82592 21 04 57.95 +27 59 47.4          19.9 GVET140204
     K23T04V KB2023 10 09.82701 21 05 00.137+28 00 12.89         19.8 VZET140J57
     K23T04V KB2023 10 09.83286 21 05 01.087+28 00 30.17         20.9 VZET140J57
     K23T04V KB2023 10 09.84319721 05 02.57 +28 00 44.1          19.8 GVET140I93
     K23T04V KB2023 10 09.85263421 05 04.10 +28 01 12.3          19.9 GVET140I93
     K23T04V KB2023 10 09.86206421 05 05.65 +28 01 40.0          19.8 GVET140I93
     K23T04V KC2023 10 10.09493821 06 02.65 +28 13 51.1                uET140H21
     K23T04V KC2023 10 10.09773521 06 03.12 +28 13 59.5          20.7 VuET140H21
     K23T04V KC2023 10 10.10053121 06 03.61 +28 14 07.8          20.6 VuET140H21
     K23T04V KC2023 10 10.81001221 09 14.15 +28 52 07.8          19.9 GXET140958
     K23T04V KC2023 10 10.81568 21 09 10.37 +28 52 19.1          19.3 GVET140L54
     K23T04V KC2023 10 10.81964321 09 16.06 +28 52 40.7          19.6 GXET140958
     K23T04V KC2023 10 10.82669 21 09 12.80 +28 52 54.4          19.0 GVET140L54
     K23T04V KC2023 10 10.83177521 09 18.42 +28 53 21.5          19.6 GXET140958
     K23T04V KC2023 10 10.83772 21 09 15.06 +28 53 29.5          19.2 GVET140L54
Observer details:
204 Schiaparelli Observatory.  Observers L. Buzzi, G. Galli.  0.84-m f/3.5
    reflector + CCD.
958 Observatoire de Dax.  Observers P. Dupouy, J. B. de Vanssay.  Measurer P.
    Dupouy.  0.43-m f/2.7 Reflector + CCD.
G96 Mt. Lemmon Survey.  Observer K. W. Wierzchos.  Measurers E. C. Beshore, D.
    Fay, J. B. Fazekas, D. C. Fuls, A. R. Gibbs, A. D. Grauer, H. Groeller, J.
    K. Hogan, R. A. Kowalski, S. M. Larson, G. J. Leonard, D. Rankin, R. L.
    Seaman, F. C. Shelly, K. W. Wierzchos.  1.5-m reflector + 10K CCD.
H21 Astronomical Research Observatory, Westfield.  Observer R. Holmes.
    Measurers T. Linder, R. Holmes, L. Horn.  0.76-m f/3.0 astrograph + CCD.
H36 Sandlot Observatory, Scranton.  Observer G. Hug.  0.56-m f/4.8 reflector +
    CMO.
I52 Steward Observatory, Mt. Lemmon Station.  Observer J. B. Fazekas.
    Measurers E. C. Beshore, D. Fay, J. B. Fazekas, D. C. Fuls, A. R. Gibbs,
    A. D. Grauer, H. Groeller, J. K. Hogan, R. A. Kowalski, S. M. Larson, G.
    J. Leonard, D. Rankin, R. L. Seaman, F. C. Shelly, K. W. Wierzchos.  1.0-m
    prime focus + CCD.
I93 St Pardon de Conques.  Observer F. Losse.  0.40-m f/3.7 reflector + CMO.
J57 Centro Astronomico Alto Turia, Valencia.  Observer A. Fornas.  Measurers
    A. Fornas, G. Fornas, E. Arce, V. Mas.  0.43-m f/6.8 Reflector 0.4m + CMO.
L54 Berthelot Observatory, Hunedoara.  Observers A. Sonka, A. Nedelcu.
    Measurer A. Sonka.  0.50-m f/8 reflector + CCD.
Orbital elements:
2023 TV4                                                 Earth MOID = 0.0103 AU
Epoch 2023 Sept. 13.0 TT = JDT 2460200.5                Bell                    
M 335.21075              (2000.0)            P               Q                  
n   0.54563457     Peri.  182.07847     +0.81565445     -0.57664337             
a   1.4832060      Node   213.27659     +0.53202245     +0.77939456             
e   0.3227339      Incl.    4.89302     +0.22728822     +0.24500315             
P   1.81           H   25.12          G   0.15           U   8                  
Residuals in seconds of arc
231009 G96  0.2+  0.3-    231009 204  0.1-  0.1+    231010 H21  0.6+  0.5+
231009 G96  0.1-  0.3-    231009 204  0.5-  0.3+    231010 958  1.9-  2.4-
231009 G96  0.1+  0.0     231009 J57  0.0   0.7+    231010 L54  0.2-  0.1+
231009 H36  1.2-  0.8-    231009 J57  0.4+  0.4+    231010 958  2.4-  2.6-
231009 H36  1.3-  0.4-    231009 I93  0.1-  0.1+    231010 L54  1.5+  0.1-
231009 I52  1.1-  0.1-    231009 I93  0.4-  0.4+    231010 958  3.6-  3.1-
231009 I52  0.5-  0.3-    231009 I93  0.5-  0.4+    231010 L54  0.6+  0.2-
231009 H36  0.8-  0.5-    231010 H21  0.4+  0.7+
231009 I52  1.7-  0.7-    231010 H21  0.4+  0.6+
Ephemeris:
2023 TV4                 a,e,i = 1.48, 0.32, 5                   q = 1.0045
Date    TT    R. A. (2000) Decl.     Delta      r    Elong.  Phase     V
2023 09 10    20 50 48.7 +18 05 38   0.1263  1.1047   138.3    37.4    22.4
...
2023 09 25    20 43 58.1 +21 18 58   0.08276 1.0548   126.8    49.6    21.7
...
2023 10 03    20 48 57.0 +23 56 58   0.06028 1.0342   122.2    55.0    21.1
...
2023 10 09    21 01 58.0 +27 21 26   0.04358 1.0221   120.7    57.2    20.4
2023 10 10    21 05 40.9 +28 09 37   0.04083 1.0203   120.7    57.3    20.3
2023 10 11    21 10 06.6 +29 03 56   0.03810 1.0187   120.9    57.2    20.1
...
2023 10 17    22 08 24.7 +38 01 54   0.02252 1.0106   127.2    51.8    18.8
...
2023 10 25    04 37 38.5 +32 32 06   0.01398 1.0049   137.5    42.0    17.5
...
2023 11 09    07 16 51.3 -05 13 27   0.04996 1.0101   111.5    65.8    21.0
M. P. C. Staff               (C) Copyright 2023 MPC           M.P.E.C. 2023-T140
    
    
More information about the Iaude
mailing list